User: anonymous   Login
Location: Bartlow
(52.0833°N, 0.3167°E)
Time: 21:41:48
(UTC+00:00)
Language:

Meteor 1-26 Rocket - Orbit

View from above orbital plane
View from above orbital plane
View from above satellite
View from above satellite

Ground track
Ground track

The orbit data is extracted from the following two-line orbital elements,

1 09482U 76102B   24055.55602285  .00000292  00000-0  15915-3 0  9995
2 09482  81.2549 267.0308 0084722 102.7471 258.3184 14.07726029431316
Epoch (UTC): 24 February 2024 13:20:40
Eccentricity: 0.0084722
inclination: 81.2549°
perigee height: 806 km
apogee height: 928 km
right ascension of ascending node: 267.0308°
argument of perigee: 102.7471°
revolutions per day: 14.07726029
mean anomaly at epoch: 258.3184°
orbit number at epoch: 43131

The dashed part of the orbit path shows where the satellite is in the earth's shadow,  

DLR